Starlink 3705

operational
NORAD ID: 52103 Int'l Des: 2022-029 Owner: SPXS Country: US Constellation: starlink
LEOCIRCULAR

About Starlink 3705

Description loading...

Live Position

Loading 3D Globe...

Upcoming Passes

Altitude History

Altitude vs Time

uPlot chart will show altitude changes over time

Two-Line Element Set

1 52103U 22029R 25258.96233395 .00000076 00000-0 22858-4 0 9990
2 52103 53.2168 143.5006 0001447 92.8681 267.2477 15.08840487194405
Epoch: Sep 15, 2025 • Age: 19 hours

Current Status

Altitude 558.6 km
Velocity 7.58 km/s
Sub-Earth Point -51.47°S, 167.53°E
Launch Date Mar 19, 2022
Age 3.4 years
Type internet

Technical Details

Classification Payload
Mass 297.00 kg
Dry Mass 275.00 kg
Total Mass 297.00 kg
Length 0.20 m
Diameter 2.80 m
Span 9.00 m
Shape Box + pan
Manufacturer SPXS
Bus Type Starlink
Phase Status In Orbit
Owner/State SPXS/US

Large Constellations

Loading constellations...